www.pogodaiklimat.ru

Погода и климат >> Архив погоды >> Норвегия >> Сельбу


ПОГОДА в Сельбу

  • Прогноз погоды в Сельбу
  • Монитор погоды в Сельбу

АРХИВ ПОГОДЫ в Сельбу

Время (UTC), дата Ветер
(напр.,м/с)
 
Видим.   Явления Облачность Т
(С)
Тd
(С)
f
(%)
Тe
(С)
Тes
(С)
Комфортность P
(гПа)
Po
(гПа)
Тmin
(С)
Tmax
(С)
R
(мм)
R24
(мм)
S
(см)
01 10.07 Ю 1-2
{2}
н/о н/о +7.5 +6.8 95 +6 +6 1018.5 999.0
02 10.07 Ю 1-1
{2}
н/о н/о +7.6 +6.9 95 +7 +7 1018.5 999.0
03 10.07 Ю 1-1
{2}
н/о н/о +8.5 +7.8 95 +8 +8 1018.6 999.1
04 10.07 Ю 1-1
{1}
н/о н/о +9.0 +8.2 95 +8 +8 1018.3 998.9
05 10.07 СВ 1-1
{2}
н/о н/о +9.7 +8.9 95 +9 +9 1018.1 998.7
06 10.07 штиль 0-1
{2}
н/о н/о +9.9 +9.1 95 +9 +9 1018.0 998.7 +7.2 +15.6
07 10.07 С 1-2
{2}
н/о н/о +10.2 +9.3 94 +10 +10 1018.0 998.7
08 10.07 З 1-2
{2}
н/о н/о +11.0 +9.6 91 +11 +11 1018.1 998.8
09 10.07 С 1-2
{2}
н/о н/о +13.5 +11.2 86 +14 +14 1017.4 998.3
10 10.07 -2
{2}
н/о н/о +16.4 +10.7 69 1016.8 997.9
11 10.07 З 1-3
{3}
н/о н/о +16.8 +11.3 70 +18 +18 1016.5 997.6
12 10.07 СЗ 2-4
{4}
н/о н/о +18.7 +11.5 63 +20 +20 1016.2 997.5
13 10.07 СЗ 1-3
{4}
н/о н/о +19.0 +10.6 58 +21 +21 комфорт 1015.9 997.2
14 10.07 З 1-3
{3}
н/о н/о +19.7 +9.3 51 +22 +22 комфорт 1015.6 996.9
15 10.07 СЗ 1-2
{4}
н/о н/о +21.0 +6.2 38 +23 +23 комфорт 1015.1 996.5
16 10.07 СЗ 1-3
{3}
н/о н/о +20.3 +8.0 45 +23 +23 комфорт 1014.8 996.2
17 10.07 СЗ 2-3
{4}
н/о н/о +19.7 +8.7 49 +21 +21 комфорт 1014.7 996.0
18 10.07 С 2-3
{4}
н/о н/о +18.6 +9.9 57 +20 +20 1014.8 996.0 +9.8 +21.2
19 10.07 С 1-2
{3}
н/о н/о +17.8 +9.9 60 +19 +19 1014.5 995.8
20 10.07 штиль 0-1
{2}
н/о н/о +15.4 +8.9 65 +15 +15 1014.7 995.7
21 10.07 Ю 1-1
{2}
н/о н/о +12.4 +9.8 84 +12 +12 1014.9 995.7
22 10.07 Ю 1-2
{3}
н/о н/о +10.5 +8.6 88 +10 +10 1015.1 995.8
23 10.07 Ю 1-3
{3}
н/о н/о +10.0 +8.3 89 +9 +9 1015.0 995.7
00 11.07 Ю 1-1
{3}
н/о н/о +8.6 +7.4 92 +8 +8 1014.9 995.6
01 11.07 ЮВ 1-2
{2}
н/о н/о +7.7 +6.6 93 +7 +7 1015.0 995.5
02 11.07 ЮВ 1-2
{2}
н/о н/о +6.5 +5.6 94 +5 +5 1015.0 995.5
03 11.07 Ю 1-2
{2}
н/о н/о +6.8 +5.9 94 +6 +6 1014.8 995.3
04 11.07 ЮВ 1-2
{2}
н/о н/о +7.5 +6.4 93 +6 +6 1014.5 995.1
05 11.07 ЮВ 1-1
{2}
н/о н/о +9.2 +7.5 89 +9 +9 1014.0 994.7
06 11.07 З 1-2
{2}
н/о н/о +12.0 +8.7 80 +12 +12 1013.6 994.4 +6.4 +18.6
07 11.07 СЗ 1-2
{2}
н/о н/о +12.8 +9.1 78 +13 +13 1013.3 994.2
08 11.07 СЗ 1-2
{2}
н/о н/о +13.9 +9.9 77 +14 +14 1013.0 994.0
09 11.07 СЗ 2-2
{2}
н/о н/о +15.8 +10.1 69 +16 +16 1012.4 993.5
10 11.07 СЗ 1-2
{3}
н/о н/о +18.0 +9.4 57 +19 +19 1011.9 993.2
11 11.07 СЗ 1-2
{3}
н/о н/о +19.7 +8.7 49 +22 +22 комфорт 1011.3 992.7
12 11.07 З 1-3
{4}
н/о н/о +20.4 +9.3 49 +23 +23 комфорт 1011.1 992.6
13 11.07 СЗ 1-2
{4}
н/о н/о +20.8 +11.4 55 +24 +24 комфорт 1010.9 992.4
14 11.07 СЗ 1-2
{4}
н/о н/о +21.5 +10.0 48 +23 +23 комфорт 1010.7 992.3
15 11.07 штиль 0-1
{3}
н/о н/о +21.0 +10.5 51 +23 +23 комфорт 1010.6 992.1
16 11.07 З 1-2
{4}
н/о н/о +20.8 +8.1 44 +23 +23 комфорт 1010.5 992.0
17 11.07 штиль 0-2
{2}
н/о н/о +20.6 +9.8 50 +22 +22 комфорт 1010.3 991.7
18 11.07 штиль 0-1
{4}
н/о н/о +18.7 +10.3 58 +19 +19 1010.3 991.6 +12.0 +21.8
19 11.07 штиль 0 н/о н/о +17.6 +10.5 63 +18 +18 1010.4 991.7
20 11.07 штиль 0-2
{2}
н/о н/о +16.2 +9.2 63 +16 +16 1010.6 991.8
21 11.07 С 1-2
{3}
н/о н/о +14.4 +9.4 72 +15 +15 1011.1 992.2
22 11.07 Ю 1-2
{2}
н/о н/о +10.4 +7.8 84 +10 +10 1011.7 992.5
23 11.07 ЮВ 2-2
{2}
н/о н/о +9.3 +7.8 90 +8 +8 1011.9 992.6
00 12.07 Ю 1-2
{3}
н/о н/о +8.0 +6.5 90 +7 +7 1012.0 992.6
01 12.07 Ю 2-3
{3}
н/о н/о +7.4 +6.4 93 +5 +5 1012.2 992.7
02 12.07 Ю 2-3
{3}
н/о н/о +6.6 +5.4 92 +4 +4 1012.5 993.0
03 12.07 Ю 2-4
{4}
н/о н/о +6.5 +5.5 93 +4 +4 1012.7 993.2
04 12.07 Ю 1-2
{3}
н/о н/о +6.8 +5.8 93 +6 +6 1012.7 993.3
05 12.07 штиль 0
{2}
н/о н/о +9.1 +7.7 91 +8 +8 1012.7 993.4
06 12.07 З 1-2
{4}
н/о н/о +9.6 +7.7 88 +9 +9 1012.9 993.6 +6.3 +18.7
07 12.07 СЗ 2-4
{4}
н/о н/о +10.8 +8.4 85 +9 +9 1012.9 993.7
08 12.07 СЗ 1-4
{5}
н/о н/о +13.0 +8.9 76 +13 +13 1012.7 993.6
09 12.07 В 1-3
{4}
н/о н/о +14.4 +9.4 72 +15 +15 1012.4 993.4
10 12.07 С 1-3
{4}
н/о н/о +15.7 +10.9 73 +16 +16 1012.3 993.4
11 12.07 СЗ 1-4
{4}
н/о н/о +16.9 +10.5 66 +18 +18 1012.1 993.3
12 12.07 З 2-5
{5}
н/о н/о +17.2 +10.1 63 +18 +18 1011.9 993.1
13 12.07 С 1-3
{5}
н/о н/о +18.4 +11.7 65 +20 +20 1011.5 992.9
14 12.07 СЗ 1-4
{4}
н/о н/о +18.4 +11.0 62 +20 +20 1011.5 992.8
15 12.07 СЗ 1-3
{4}
н/о н/о +19.0 +10.8 59 +21 +21 комфорт 1011.5 992.9
16 12.07 СЗ 1-3
{4}
н/о н/о +18.3 +10.4 60 +20 +20 1011.5 992.8
17 12.07 СЗ 2-3
{3}
н/о н/о +18.7 +10.0 57 +20 +20 1011.7 993.0
18 12.07 З 1-3
{5}
н/о н/о +17.2 +10.6 65 +18 +18 1011.9 993.2 +9.6 +19.2
19 12.07 С 1-2
{3}
н/о н/о +15.8 +10.4 70 +17 +17 1012.4 993.5
20 12.07 З 1-3
{4}
н/о н/о +14.3 +10.1 76 +15 +15 1012.9 993.9
21 12.07 СЗ 2-5
{5}
н/о н/о +13.2 +9.5 78 +13 +13 1013.5 994.4
22 12.07 З 1-3
{5}
н/о н/о +11.4 +8.3 81 +11 +11 1014.0 994.9
23 12.07 СЗ 2-4
{6}
н/о н/о +10.6 +7.8 83 +9 +9 1014.7 995.4
00 13.07 СЗ 2-4
{6}
н/о н/о +10.3 +7.9 85 +9 +9 1014.7 995.4
01 13.07 СЗ 2-4
{4}
н/о н/о +10.2 +7.6 84 +9 +9 1014.8 995.5
02 13.07 СЗ 2-3
{4}
н/о н/о +10.1 +7.5 84 +9 +9 1015.2 995.9
03 13.07 ЮЗ 1-3
{4}
н/о н/о +10.3 +7.0 80 +10 +10 1015.1 995.8
04 13.07 ЮЗ 2-3
{4}
н/о н/о +10.4 +6.6 77 +9 +9 1015.3 996.0
05 13.07 Ю 1-1
{3}
н/о н/о +10.8 +6.8 76 +11 +11 1015.4 996.1
06 13.07 штиль 0-1
{4}
н/о н/о +11.4 +7.3 76 +11 +11 1015.4 996.2 +10.1 +17.1
07 13.07 Ю 1-1
{2}
н/о н/о +11.6 +7.1 74 +12 +12 1015.6 996.4
08 13.07 ЮЗ 2-3
{3}
н/о н/о +12.0 +6.9 71 +11 +11 1015.9 996.7
09 13.07 СЗ 1-2
{3}
н/о н/о +12.5 +7.4 71 +13 +13 1015.9 996.8
10 13.07 З 1-2
{2}
н/о н/о +12.8 +7.3 69 +13 +13 1015.8 996.7
11 13.07 СЗ 2-3
{3}
н/о н/о +13.3 +8.0 70 +13 +13 1016.0 996.9
12 13.07 З 1-2
{3}
н/о н/о +13.4 +7.2 66 +14 +14 1016.0 996.9
13 13.07 СЗ 1-2
{2}
н/о н/о +13.9 +8.7 71 +14 +14 1016.0 997.0
14 13.07 СВ 2-4
{4}
н/о н/о +13.6 +8.2 70 +13 +13 1016.1 997.1
15 13.07 СЗ 1-2
{3}
н/о н/о +13.6 +8.2 70 +14 +14 1016.4 997.3
16 13.07 З 1-2
{4}
н/о н/о +13.9 +8.7 71 +14 +14 1016.4 997.3
17 13.07 З 1-2
{2}
н/о н/о +14.2 +8.6 69 +15 +15 1016.2 997.2
18 13.07 СЗ 2-4
{4}
н/о н/о +13.8 +9.5 75 +13 +13 1016.3 997.2 +11.2 +14.7
19 13.07 СЗ 1-4
{5}
н/о н/о +13.0 +8.9 76 +13 +13 1016.8 997.7
20 13.07 СЗ 1-4
{4}
н/о н/о +12.4 +8.5 77 +12 +12 1017.4 998.2
21 13.07 СЗ 2-4
{4}
н/о н/о +11.8 +7.5 75 +11 +11 1017.8 998.5
22 13.07 СЗ 2-4
{4}
н/о н/о +11.0 +6.9 76 +10 +10 1018.2 998.9
23 13.07 СЗ 2-3
{4}
н/о н/о +10.5 +6.1 74 +9 +9 1018.4 999.1
00 14.07 З 1-3
{5}
н/о н/о +10.2 +5.8 74 +10 +10 1018.4 999.1
01 14.07 З 2-4
{4}
н/о н/о +10.1 +5.7 74 +9 +9 1018.6 999.2
02 14.07 СЗ 2-3
{5}
н/о н/о +9.8 +5.8 76 +8 +8 1018.5 999.1
03 14.07 СЗ 1-3
{4}
н/о н/о +9.7 +5.5 75 +9 +9 1018.6 999.2
04 14.07 СЗ 1-2
{4}
н/о н/о +9.6 +5.0 73 +9 +9 1018.6 999.2
05 14.07 СЗ 1-2
{2}
н/о н/о +9.7 +5.3 74 +9 +9 1018.6 999.2
06 14.07 З 2-5
{5}
н/о н/о +10.0 +5.2 72 +9 +9 1018.6 999.3 +9.6 +13.8
07 14.07 СЗ 2-4
{5}
н/о н/о +10.1 +5.1 71 +9 +9 1018.9 999.5
08 14.07 СЗ 2-4
{4}
н/о н/о +10.1 +5.3 72 +9 +9 1019.0 999.6
09 14.07 С 2-3
{5}
н/о н/о +10.5 +4.9 68 +9 +9 1019.1 999.8
10 14.07 СЗ 2-4
{5}
н/о н/о +10.8 +5.4 69 +10 +10 1019.1 999.7
11 14.07 З 1-3
{3}
н/о н/о +11.6 +5.5 66 +12 +12 1018.9 999.6
12 14.07 З 2-4
{5}
н/о н/о +12.2 +6.9 70 +11 +11 1018.7 999.5
13 14.07 З 2-4
{4}
н/о н/о +12.6 +5.8 63 +12 +12 1018.7 999.5
14 14.07 С 2-4
{5}
н/о н/о +12.3 +6.2 66 +12 +12 1018.8 999.6
15 14.07 СЗ 1-3
{5}
н/о н/о +12.5 +6.3 66 +13 +13 1018.7 999.5
16 14.07 СЗ 2-4
{4}
н/о н/о +12.1 +6.4 68 +11 +11 1018.6 999.4
17 14.07 СЗ 2-5
{5}
н/о н/о +11.2 +7.1 76 +10 +10 1018.3 999.1
18 14.07 СЗ 2-4
{5}
н/о н/о +10.8 +7.1 78 +10 +10 1018.5 999.2 +9.9 +12.6
19 14.07 С 2-4
{4}
н/о н/о +10.0 +7.4 84 +8 +8 1018.4 999.1
20 14.07 СЗ 1-3
{5}
н/о н/о +9.6 +7.4 86 +9 +9 1018.3 998.9
21 14.07 СЗ 2-3
{4}
н/о н/о +9.4 +6.7 83 +8 +8 1018.4 999.0
22 14.07 З 2-3
{4}
н/о н/о +9.0 +7.0 87 +7 +7 1018.3 998.9
23 14.07 З 1-4
{4}
н/о н/о +9.1 +7.1 87 +8 +8 1017.8 998.4
00 15.07 СЗ 1-3
{5}
н/о н/о +8.6 +7.1 90 +8 +8 1017.6 998.1
01 15.07 СЗ 2-3
{4}
н/о н/о +8.7 +7.2 90 +7 +7 1017.3 997.8
02 15.07 СЗ 2-3
{4}
н/о н/о +8.7 +7.0 89 +7 +7 1016.9 997.4
03 15.07 СЗ 2-4
{4}
н/о н/о +8.7 +7.2 90 +7 +7 1016.6 997.1
04 15.07 СЗ 2-4
{4}
н/о н/о +8.7 +7.2 90 +7 +7 1016.5 997.1
05 15.07 СЗ 2-4
{4}
н/о н/о +9.1 +7.2 88 +7 +7 1016.2 996.8
06 15.07 СЗ 2-3
{5}
н/о н/о +8.9 +7.4 90 +7 +7 1015.9 996.5 +8.6 +10.9 1
07 15.07 СЗ 2-4
{5}
н/о н/о +9.0 +7.8 92 +7 +7 1015.7 996.3
08 15.07 СЗ 2-4
{4}
н/о н/о +9.6 +8.0 90 +8 +8 1015.5 996.1
09 15.07 СЗ 2-4
{5}
н/о н/о +9.7 +8.3 91 +8 +8 1015.3 996.0
10 15.07 СЗ 2-4
{4}
н/о н/о +10.4 +8.7 89 +9 +9 1015.2 995.9
11 15.07 СЗ 1-3
{4}
н/о н/о +10.4 +8.8 90 +10 +10 1014.9 995.6
12 15.07 З 1-3
{5}
н/о н/о +11.0 +9.1 88 +11 +11 1014.7 995.4 1
13 15.07 З 1-4
{4}
н/о н/о +10.8 +8.9 88 +10 +10 1014.4 995.2
14 15.07 З 1-3
{3}
н/о н/о +10.7 +9.1 90 +10 +10 1014.2 994.9
15 15.07 Ю 1-2
{3}
н/о н/о +11.0 +9.3 89 +11 +11 1013.9 994.7
16 15.07 СЗ 1-3
{3}
н/о н/о +10.8 +9.2 90 +10 +10 1013.7 994.5
17 15.07 штиль 0-1
{3}
н/о н/о +10.6 +8.9 89 +10 +10 1013.8 994.5
18 15.07 З 2-4
{4}
н/о н/о +10.5 +8.8 89 +9 +9 1013.7 994.4 +8.9 +11.1 4
19 15.07 СЗ 2-4
{5}
н/о н/о +10.5 +8.6 88 +9 +9 1013.8 994.6
20 15.07 СЗ 4-6
{6}
н/о н/о +10.5 +7.7 83 +8 +8 1014.2 995.0
21 15.07 С 3-5
{7}
н/о н/о +10.1 +6.8 80 +8 +8 1015.1 995.8
22 15.07 СЗ 3-6
{6}
н/о н/о +9.8 +6.9 82 +8 +8 1015.6 996.2
23 15.07 СЗ 3-6
{6}
н/о н/о +9.5 +6.8 83 +7 +7 1015.9 996.5
00 16.07 СЗ 2-5
{7}
н/о н/о +9.5 +6.8 83 +8 +8 1016.2 996.8
01 16.07 СЗ 2-4
{5}
н/о н/о +9.4 +7.0 85 +8 +8 1016.4 997.0
02 16.07 СЗ 2-5
{5}
н/о н/о +9.2 +7.0 86 +7 +7 1016.4 997.1
03 16.07 СЗ 2-5
{5}
н/о н/о +9.3 +7.3 87 +8 +8 1016.5 997.2
04 16.07 СЗ 2-5
{5}
н/о н/о +9.3 +6.9 85 +8 +8 1016.7 997.3
05 16.07 СЗ 2-5
{5}
н/о н/о +9.6 +7.2 85 +8 +8 1017.0 997.6
06 16.07 СЗ 2-4
{5}
н/о н/о +10.1 +7.4 83 +9 +9 1017.1 997.8 +9.1 +10.6
07 16.07 СЗ 1-3
{4}
н/о н/о +10.7 +7.4 80 +10 +10 1017.2 997.9
08 16.07 СЗ 1-4
{4}
н/о н/о +11.6 +8.1 79 +11 +11 1017.2 997.9
09 16.07 СЗ 1-3
{4}
н/о н/о +11.3 +7.6 78 +11 +11 1017.1 997.8
10 16.07 СЗ 2-4
{4}
н/о н/о +11.8 +7.7 76 +11 +11 1017.1 997.9
11 16.07 С 1-2
{3}
н/о н/о +11.6 +6.9 73 +12 +12 1017.1 997.9
12 16.07 В 1-2
{4}
н/о н/о +11.5 +7.0 74 +11 +11 1017.2 997.9
13 16.07 СЗ 1-2
{2}
н/о н/о +11.8 +7.1 73 +12 +12 1017.2 997.9
14 16.07 ЮЗ 1-2
{2}
н/о н/о +11.7 +8.4 80 +12 +12 1017.2 998.0
15 16.07 З 2-3
{3}
н/о н/о +12.5 +8.0 74 +12 +12 1016.7 997.5
16 16.07 СЗ 2-3
{3}
н/о н/о +14.2 +8.4 68 +14 +14 1016.2 997.1
17 16.07 З 1-3
{3}
н/о н/о +13.1 +8.4 73 +13 +13 1015.9 996.8
18 16.07 СЗ 1-3
{3}
н/о н/о +13.4 +8.7 73 +14 +14 1015.6 996.5 +10.1 +14.8
19 16.07 С 1-2
{3}
н/о н/о +13.0 +8.3 73 +13 +13 1015.3 996.2
20 16.07 СВ 2-3
{3}
н/о н/о +11.4 +7.9 79 +10 +10 1015.4 996.2
21 16.07 ЮВ 1-2
{3}
н/о н/о +8.4 +6.9 90 +8 +8 1015.7 996.3
22 16.07 ЮВ 1-2
{2}
н/о н/о +7.2 +6.0 92 +6 +6 1015.8 996.3
23 16.07 Ю 1-2
{2}
н/о н/о +6.2 +5.3 94 +5 +5 1015.8 996.3
00 17.07 Ю 1-2
{3}
н/о н/о +5.6 +4.9 95 +4 +4 1015.7 996.1
01 17.07 Ю 2-2
{3}
н/о н/о +5.9 +5.2 95 +3 +3 1015.3 995.7

 

Местоположение метеостанции Сельбу (Норвегия): широта 63.23 долгота 11.01 высота над уровнем моря 160 м.

В архиве по умолчанию представлена погода в Сельбу за последнюю неделю. Архивные данные за месяц целиком и за предыдущие месяцы, начиная с января 2011 года, Вы можете получить, выбрав интересующий диапазон дат из раскрывающегося списка и нажав кнопку "Ввод!".


*Определитесь, кто Вы:
робот инопланетянин человек

Внимание! Время в таблицах - всемирное. Для получения местного времени необходимо прибавить поправку, которая равна 1 ч.

Смотрите также архив погоды в соседних городах и на ближайших метеорологических станциях:

Погода в Тронхейм аэропорту (Норвегия) (26 км)
Погода в Квитаммаре (Норвегия) (30 км)
Погода в Тронхейме (Норвегия) (34 км)
Погода в Котсой (Норвегия) (36 км)
Погода во Фросте (Норвегия) (41 км)
Погода в Мерокере (Норвегия) (41 км)
Погода в Сокнедале (Норвегия) (52 км)
Погода в Сторлиен аэропорту (Швеция) (56 км)
Погода в Блахамаррене (Швеция) (58 км)
Погода в Орканжере (Норвегия) (59 км)

Пояснения к столбцам:

Ветер - указаны скорость ветра в м/с - средняя за 10 мин, порывы в срок и между сроками (в фигурных скобках) и направление, откуда дует ветер: С - северный, СВ - северо-восточный, В - восточный, ЮВ - юго-восточный, Ю - южный, ЮЗ - юго-западный, З - западный, СЗ - северо-западный.
Видимость - горизонтальная дальность видимости в метрах или километрах. При видимости от 1 до 10 км при отсутствии осадков обычно наблюдается дымка, при ухудшении видимости до 1 км и менее - туман. В сухую погоду видимость может ухудшаться дымом, пылью или мглою.
Явления - указаны атмосферные явления, наблюдавшиеся в срок или в последний час перед сроком; фигурными скобками обозначены явления, наблюдавшиеся между сроками (за 1-3 часа до срока); квадратными скобками обозначены град или гололедные отложения с указанием их диаметра в мм.
Облачность - указаны через наклонную черту общая и нижняя облачность в баллах и высота нижней границы облаков в метрах; квадратными скобками обозначены формы облаков: Ci - перистые, Cs - перисто-слоистые, Cc - перисто-кучевые, Ac - высококучевые, As - высокослоистые, Sc - слоисто-кучевые, Ns - слоисто-дождевые, Cu - кучевые, Cb - кучево-дождевые. Подробнее классификацию облаков см. в Атласе облаков (PDF).
T - Температура воздуха - температура, измеренная на высоте 2 м над землей.
Td - Температура точки росы - температура, при понижении до которой содержащийся в воздухе водяной пар достигнет насыщения.
f - Относительная влажность воздуха - влажноcть воздуха, измеренная на высоте 2 м над землей.
Te - Эффективная температура - температура, которую ощущает одетый по сезону человек в тени. Характеристика душности погоды. При расчете учитывается влияние влажности воздуха и скорости ветра на теплоощущения человека.
Tes - Эффективная температура на солнце - температура, которую ощущает человек, с поправкой на солнечный нагрев. Характеристика знойности погоды. Зависит от высоты солнца над горизонтом, облачности и скорости ветра. Ночью, в пасмурную погоду, а также при ветре 12 м/с и более поправка равна нулю.
P - Атмосферное давление - приведенное к уровню моря атмосферное давление.
Po - Атмосферное давление - измеренное на уровне метеостанции атмосферное давление.
Tmin - Минимальная температура - минимум температуры воздуха на высоте 2 м над землей.
Tmax - Максимальная температура - максимум температуры воздуха на высоте 2 м над землей.
R - Количество осадков - Количество выпавших осадков за период времени, мм. При наведении курсора мыши на число - период времени, за который выпало указанное количество осадков.
R24 - Количество осадков - Количество выпавших осадков за 24 часа, мм.
S - Снежный покров - Высота снежного покрова, см. При наведении курсора мыши на число - состояние снежного покрова и степень покрытия местности в баллах.